Location: Beaufort Park
(39.1418°N, 76.9433°W)
Time: 23:32:52
(UTC+00:00)

Cosmos 1553 Rocket - Pass Details

Date: 29 October 2020
Orbit: 940 x 1009 km, 82.9° (Epoch: 03 December)

Event Time Altitude Azimuth Distance (km) Brightness Sun altitude
Rises 22:52:42 0° 175° (S) 3,713 7.1 -8.9°
Reaches altitude 10° 22:55:16 10° 172° (S) 2,762 6.4 -9.4°
Maximum altitude 23:01:30 62° 93° (E) 1,106 4.0 -10.6°
Drops below altitude 10° 23:07:41 10° 14° (NNE) 2,737 6.1 -11.8°
Sets 23:10:12 0° 11° (N) 3,678 6.8 -12.3°
